Weather History for Harrison, AR

Change the Weather History Date:

Friday, January 10, 2014

  Actual Average Record
Temperature  
Mean Temperature 43 °F 36 °F  
Max Temperature 53 °F 46 °F 71 °F (1990)
Min Temperature 33 °F 26 °F -6 °F (1982)
Degree Days  
Heating Degree Days 22 29  
Month to date heating degree days 379 290  
Since 1 July heating degree days 2070 1889  
Cooling Degree Days 0 0  
Month to date cooling degree days 0 0  
Year to date cooling degree days 0 0  
Moisture  
Dew Point 44 °F    
Average Humidity 86    
Maximum Humidity 100    
Minimum Humidity 71    
Precipitation  
Precipitation 0.63 in 0.08 in 1.08 in (1975)
Month to date precipitation 1.03 0.84  
Year to date precipitation 1.03 0.84  
Snow  
Snow 0.00 in 0.10 in 11.00 in (1955)
Month to date snowfall 1.0 1.0  
Since 1 July snowfall 10.0 2.8  
Snow Depth 0.00 in    
Sea Level Pressure  
Sea Level Pressure 29.82 in    
Wind  
Wind Speed 11 mph (South)    
Max Wind Speed 24 mph    
Max Gust Speed 37 mph    
Visibility 6 miles    
Events Fog , Rain    
T = Trace of Precipitation, MM = Missing Value Source: NWS Daily Summary

Daily Weather History Graph

Daily Weather History Graph

Search for Another Location

Airport:

Trip Planner

Search our weather history database for the weather conditions in past years. The results will help you decide how hot, cold, wet, or windy it might be!

Date:

Astronomy

Jan. 10, 2014 Rise Set
Actual Time 7:24 AM CST 5:16 PM CST
Civil Twilight 6:55 AM CST 5:44 PM CST
Nautical Twilight 6:24 AM CST 6:16 PM CST
Astronomical Twilight 5:53 AM CST 6:47 PM CST
Moon 1:18 PM CST (1/10) 2:35 AM CST (1/10)
Length of Visible Light 10h 48m
Length of Day
9h 52m
Waxing Gibbous, 75% of the Moon is Illuminated
Jan 10
Waxing Gibbous
Jan 15
Full
Jan 23
Last Quarter
Jan 30
New
Feb 6
First Quarter

Hourly Weather History & Observations

Time (CST) Temp. Windchill Dew Point Humidity Pressure Visibility Wind Dir Wind Speed Gust Speed Precip Events Conditions
12:53 AM 33.1 °F 27.7 °F 33.1 °F 100% 30.07 in 0.2 mi SE 5.8 mph - N/A Fog Fog
1:53 AM 33.1 °F 30.0 °F 33.1 °F 100% 30.05 in 0.2 mi SE 3.5 mph - N/A Fog Fog
2:53 AM 33.1 °F 25.5 °F 33.1 °F 100% 30.02 in 0.2 mi SE 9.2 mph - N/A Fog Fog
3:53 AM 34.0 °F 28.8 °F 33.1 °F 96% 30.00 in 0.2 mi SE 5.8 mph - N/A Fog Fog
4:53 AM 35.1 °F 32.2 °F 35.1 °F 100% 29.96 in 0.2 mi SSE 3.5 mph - N/A Fog Fog
5:53 AM 41.0 °F 34.7 °F 41.0 °F 100% 29.93 in 0.2 mi SSE 10.4 mph - N/A Fog Fog
6:17 AM 44.6 °F 37.8 °F 42.8 °F 93% 29.91 in 0.8 mi SSE 15.0 mph 19.6 mph 0.00 in Rain Light Rain
6:22 AM 44.6 °F 37.2 °F 44.6 °F 100% 29.91 in 2.5 mi SSE 17.3 mph 24.2 mph 0.00 in Rain Light Rain
6:29 AM 44.6 °F 37.4 °F 44.6 °F 100% 29.91 in 5.0 mi SSE 16.1 mph - 0.00 in Rain Light Rain
6:41 AM 44.6 °F 39.7 °F 44.6 °F 100% 29.91 in 3.0 mi SSE 9.2 mph - 0.00 in Rain Light Rain
6:53 AM 46.0 °F 40.2 °F 46.0 °F 100% 29.92 in 8.0 mi South 12.7 mph 19.6 mph 0.00 in Rain Light Rain
7:06 AM 46.4 °F 41.5 °F 44.6 °F 93% 29.90 in 10.0 mi South 10.4 mph - 0.00 in   Overcast
7:25 AM 46.4 °F 41.5 °F 44.6 °F 93% 29.91 in 10.0 mi SSE 10.4 mph - 0.00 in   Overcast
7:34 AM 46.4 °F 40.7 °F 44.6 °F 93% 29.90 in 10.0 mi SSE 12.7 mph - 0.00 in   Overcast
7:53 AM 46.9 °F - 46.0 °F 97% 29.90 in 9.0 mi South 15.0 mph 21.9 mph 0.00 in   Overcast
8:53 AM 46.9 °F - 46.0 °F 97% 29.88 in 8.0 mi SSE 11.5 mph 19.6 mph 0.00 in   Overcast
9:18 AM 46.4 °F 40.7 °F 46.4 °F 100% 29.85 in 7.0 mi SE 12.7 mph 20.7 mph N/A   Overcast
9:53 AM 48.0 °F - 46.9 °F 96% 29.86 in 7.0 mi SSE 15.0 mph 21.9 mph 0.00 in Rain Light Rain
10:13 AM 48.2 °F - 48.2 °F 100% 29.84 in 2.5 mi South 16.1 mph 25.3 mph 0.02 in Rain Heavy Rain
10:19 AM 48.2 °F - 48.2 °F 100% 29.84 in 3.0 mi South 11.5 mph 20.7 mph 0.02 in Rain Light Rain
10:27 AM 48.2 °F - 48.2 °F 100% 29.83 in 5.0 mi South 16.1 mph 21.9 mph 0.02 in Rain Light Rain
10:32 AM 48.2 °F - 48.2 °F 100% 29.83 in 2.5 mi South 15.0 mph 26.5 mph 0.02 in Rain Rain
10:42 AM 48.2 °F - 48.2 °F 100% 29.82 in 6.0 mi South 19.6 mph 25.3 mph 0.02 in Rain Light Rain
10:53 AM 50.0 °F - 48.0 °F 93% 29.84 in 6.0 mi South 20.7 mph 27.6 mph 0.02 in Rain Light Rain
11:53 AM 48.9 °F - 48.0 °F 97% 29.78 in 4.0 mi South 17.3 mph - N/A Rain Rain
12:53 PM 51.1 °F - 48.0 °F 89% 29.75 in 8.0 mi South 10.4 mph 26.5 mph N/A Rain Light Rain
1:53 PM 51.1 °F - 48.0 °F 89% 29.72 in 10.0 mi South 9.2 mph - 0.01 in Rain Light Rain
2:53 PM 50.0 °F - 48.0 °F 93% 29.71 in 3.0 mi SSE 12.7 mph - 0.00 in Rain Light Rain
3:38 PM 50.0 °F - 48.2 °F 94% 29.66 in 8.0 mi South 17.3 mph 25.3 mph 0.00 in Rain Light Rain
3:53 PM 50.0 °F - 48.0 °F 93% 29.66 in 8.0 mi South 16.1 mph 24.2 mph 0.00 in   Overcast
4:53 PM 48.9 °F - 48.0 °F 97% 29.63 in 9.0 mi SSE 15.0 mph - 0.00 in Rain Light Rain
5:53 PM 48.9 °F - 46.9 °F 93% 29.61 in 9.0 mi SSE 10.4 mph - 0.00 in   Scattered Clouds
6:53 PM 48.9 °F - 46.9 °F 93% 29.60 in 8.0 mi South 11.5 mph - N/A   Scattered Clouds
7:53 PM 51.1 °F - 46.0 °F 83% 29.65 in 3.0 mi WSW 13.8 mph 36.8 mph 0.02 in Rain Rain
8:53 PM 50.0 °F - 46.0 °F 86% 29.65 in 10.0 mi West 11.5 mph 20.7 mph 0.00 in   Mostly Cloudy
9:53 PM 46.0 °F 41.0 °F 37.0 °F 71% 29.70 in 10.0 mi West 10.4 mph 16.1 mph N/A   Clear
10:53 PM 43.0 °F 40.3 °F 35.1 °F 74% 29.69 in 10.0 mi West 4.6 mph - N/A   Clear
11:53 PM 39.9 °F 37.8 °F 32.0 °F 73% 29.68 in 10.0 mi West 3.5 mph - N/A   Clear